LROPLRAR

Guest
Details From LROP - Bucarest Otopeni Intl
To LRAR - Arad
Flight Number -
Tags Decoded
Created
Modified
Stats Distance 225 nm / 418 km
Max Altitude 0 ft / 0 m
Waypoints 2
Social Downloads 1
Likes 0
Share VATSIM

Download

Looking for another format? Having issues loading an existing format? Contact us
Advertisement - Login to hide

Notes

Decoded

Route

LROP LRAR

ID Type Via Altitude Latitude Longitude Leg Dist Tot Dist Heading (true) Name
O LROP APT - 0 ft / 0 m 44.57648˚ 26.08393˚ - 0 nm - -
O LRAR APT - 0 ft / 0 m 46.17737˚ 21.24921˚ 225 nm 225 nm 297° / 294° -

Altitude Profile

Advertisement - Login to hide

Weather


0- 5 10 15 20 25 30 35+ Temperature / ° C

Clouds and Precipitation
Forecast for 2018-05-21 06:00 UTC. Updated an hour ago

Ground ~20,000 ft ~40,000 ft Winds

LROP

Details ICAO LROP (OTP)
Name Bucarest Otopeni Intl
Region Romania
Timezone Europe/Bucharest (UTC+3.0)
Stats Elevation 314 ft / 96 m (AMSL)
Location 44.572161° 26.102177°
Runways 2
Magnetic Variation 5.652° E

METAR

LROP 210600Z 06017KT CAVOK 19/11 Q1020 NOSIG

Decode

TAF

TAF LROP 210500Z 2106/2206 07015KT CAVOK BECMG 2117/2119 VRB04KT

Decode

Departure Runways

ID Width Length Bearing (true) Bearing (mag) Surface Threshold Offset Overrun Length
08L 148 ft / 45 m 11,457 ft / 3,492 m 83.91° 78.26° Asphalt 500 ft / 152 m 0 ft / 0 m
08R 148 ft / 45 m 11,455 ft / 3,491 m 83.89° 78.24° Asphalt 450 ft / 137 m 0 ft / 0 m
26L 148 ft / 45 m 11,455 ft / 3,491 m 263.92° 258.27° Asphalt 450 ft / 137 m 0 ft / 0 m
26R 148 ft / 45 m 11,457 ft / 3,492 m 263.94° 258.29° Asphalt 500 ft / 152 m 0 ft / 0 m

LRAR

Details ICAO LRAR (ARW)
Name ARAD
Region Romania
Timezone Europe/Bucharest (UTC+3.0)
Stats Elevation 352 ft / 107 m (AMSL)
Location 46.176552° 21.262023°
Runways 1
Magnetic Variation 5.053° E

METAR

LRAR 210600Z 15007KT 9999 FEW025 18/14 Q1018

Decode

TAF

Not found

Destination Runways

ID Width Length Bearing (true) Bearing (mag) Surface Threshold Offset Overrun Length
09 148 ft / 45 m 6,505 ft / 1,983 m 95.29° 90.24° Concrete 0 ft / 0 m 0 ft / 0 m
27 148 ft / 45 m 6,505 ft / 1,983 m 275.31° 270.26° Concrete 0 ft / 0 m 0 ft / 0 m

Approach Navaids

Runway Type Ident Frequency Range Bearing (true) Bearing (mag) Slope Elevation
09 Localiser IAR 109.90 MHz 18 nm / 33 km 95.30° 90.25° - 347 ft / 106 m (AMSL)
09 Glidescope IAR 109.90 MHz 10 nm / 19 km 95.30° 90.25° 2.50° 347 ft / 106 m (AMSL)
27 Localiser IAD 110.70 MHz 18 nm / 33 km 276.53° 271.48° - 347 ft / 106 m (AMSL)
27 Glidescope IAD 110.70 MHz 10 nm / 19 km 275.30° 270.25° 3.00° 347 ft / 106 m (AMSL)
27 DME IAD 110.70 MHz 18 nm / 33 km - - - 360 ft / 110 m (AMSL)

Popular Alternatives